York, PA

2:52 AM EDT on September 15, 2019 (GMT -0400)
York

Weather History for KTHV - August, 2019

Change the Weather History Date:

Sunday, August 25, 2019

  Actual Average Record
Temperature  
Mean Temperature 64 °F -  
Max Temperature 77 °F 87 °F 93 °F (2007)
Min Temperature 53 °F 52 °F 48 °F (2005)
Degree Days  
Heating Degree Days 1    
Growing Degree Days 14 (Base 50)    
Moisture  
Dew Point 55 °F    
Average Humidity 72    
Maximum Humidity 97    
Minimum Humidity 46    
Precipitation  
Precipitation 0.00 in - - ()
Sea Level Pressure  
Sea Level Pressure 30.23 in    
Wind  
Wind Speed 3 mph ()    
Max Wind Speed 14 mph    
Max Gust Speed 18 mph    
Visibility 10.0 miles    
Events      
Averages and records for this station are not official NWS values.
T = Trace of Precipitation, MM = Missing Value Source: Averaged Metar Reports

Daily Weather History Graph

Daily Weather History Graph

Search for Another Location

Airport or City:

Astronomy

Aug. 25, 2019 Rise Set
Actual Time 6:28 AM EDT 7:49 PM EDT
Civil Twilight 6:00 AM EDT 8:18 PM EDT
Nautical Twilight 5:26 AM EDT 8:51 PM EDT
Astronomical Twilight 4:50 AM EDT 9:27 PM EDT
Moon 1:01 AM EDT (8/25) 4:08 PM EDT (8/25)
Length of Visible Light 14h 17m
Length of Day
13h 21m
Waning Crescent, 29% of the Moon is Illuminated
Aug 25
Waning Crescent
Aug 30
New
Sep 5
First Quarter
Sep 14
Full
Sep 21
Last Quarter

Hourly Weather History & Observations

Time (EDT) Temp. Dew Point Humidity Pressure Visibility Wind Dir Wind Speed Gust Speed Precip Events Conditions
12:53 AM 61.0 °F 59.0 °F 93% 30.25 in 10.0 mi Calm Calm - N/A   Overcast
1:53 AM 61.0 °F 59.0 °F 93% 30.23 in 10.0 mi Calm Calm - N/A   Overcast
2:53 AM 60.1 °F 57.9 °F 93% 30.23 in 10.0 mi Calm Calm - N/A   Overcast
3:53 AM 60.1 °F 55.0 °F 83% 30.23 in 10.0 mi Calm Calm - N/A   Overcast
4:53 AM 55.0 °F 54.0 °F 96% 30.22 in 10.0 mi Calm Calm - N/A   Clear
5:53 AM 53.1 °F 52.0 °F 96% 30.24 in 10.0 mi Calm Calm - N/A   Clear
6:53 AM 53.1 °F 52.0 °F 96% 30.25 in 10.0 mi Calm Calm - N/A   Partly Cloudy
7:53 AM 60.1 °F 55.0 °F 83% 30.28 in 10.0 mi Calm Calm - N/A   Partly Cloudy
8:53 AM 64.9 °F 55.0 °F 70% 30.28 in 10.0 mi ENE 4.6 mph - N/A   Clear
9:53 AM 69.1 °F 57.0 °F 65% 30.27 in 10.0 mi ENE 8.1 mph - N/A   Clear
10:53 AM 71.1 °F 57.0 °F 61% 30.27 in 10.0 mi East 8.1 mph - N/A   Clear
11:53 AM 73.0 °F 55.9 °F 55% 30.25 in 10.0 mi NE 12.7 mph 17.3 mph N/A   Clear
12:53 PM 75.9 °F 54.0 °F 46% 30.24 in 10.0 mi ENE 13.8 mph - N/A   Scattered Clouds
1:53 PM 75.0 °F 55.0 °F 50% 30.23 in 10.0 mi East 10.4 mph - N/A   Mostly Cloudy
2:53 PM 75.0 °F 54.0 °F 48% 30.21 in 10.0 mi ENE 8.1 mph - N/A   Overcast
3:53 PM 73.9 °F 53.1 °F 48% 30.21 in 10.0 mi East 10.4 mph 18.4 mph N/A   Scattered Clouds
4:53 PM 73.9 °F 53.1 °F 48% 30.20 in 10.0 mi ESE 8.1 mph - N/A   Clear
5:53 PM 73.9 °F 52.0 °F 46% 30.20 in 10.0 mi East 8.1 mph - N/A   Partly Cloudy
6:53 PM 73.0 °F 53.1 °F 49% 30.20 in 10.0 mi East 6.9 mph - N/A   Clear
7:53 PM 69.1 °F 54.0 °F 58% 30.19 in 10.0 mi East 5.8 mph - N/A   Clear
8:53 PM 61.0 °F 57.0 °F 87% 30.20 in 10.0 mi Calm Calm - N/A   Clear
9:53 PM 57.9 °F 57.0 °F 97% 30.21 in 10.0 mi Calm Calm - N/A   Clear
10:53 PM 57.0 °F 55.0 °F 93% 30.22 in 10.0 mi Calm Calm - N/A   Clear
11:53 PM 60.1 °F 55.0 °F 83% 30.22 in 10.0 mi Calm Calm - N/A   Clear